Location: Newark
(34.3481°N, 134.0494°E)
Time: 03:28:27
(UTC+00:00)

Vanguard 3 - Pass Details

Date: 28 January 2020
Orbit: 508 x 3263 km, 33.3° (Epoch: 18 February)

Event Time Altitude Azimuth Distance (km) Brightness Sun altitude
Rises 15:03:43 0° 283° (WNW) 6,469 11.8 -73.6°
Enters shadow 15:07:03 - 277° (W) 5,648 11.4 -73.7°
Reaches altitude 10° 15:09:57 10° 271° (W) 4,950 - -73.8°
Maximum altitude 15:18:33 20° 230° (SW) 3,313 - -73.9°
Drops below altitude 10° 15:24:43 10° 186° (S) 3,371 - -73.8°
Sets 15:27:58 0° 169° (S) 3,946 - -73.7°
